[[{"header":{"parameterUnit":"m.s-1","parameterCategory":2,"la1":30.2991,"la2":30.254,"lo1":-89.0895,"lo2":-89.0444,"dy":0.0017,"dx":0.0017,"nx":28,"ny":28,"refTime":"2025-03-10T21:00:00:Z","depth":"0","parameterNumber":2,"parameterNumberName":"U-component_of_CURRENTS"},"data":[0,0,0,0,0,0,0,0,0,0,0,0,0,0,0,0,0,0,0,0,0,0,0,0,0,0,0,0,0,0,0,0,0,0,0,0,0,0,0,0,0,0,0,0,0,0,0,0,0,0,0,0,0,0,0,0,0,0,-0.2418,-0.2419,0,-0.2568,-0.257,-0.2572,-0.2515,-0.2511,-0.2507,-0.2503,-0.2523,-0.2527,-0.2531,0,0,0,0,0,0,0,0,0,0,0,0,0,-0.2286,-0.2287,-0.2418,-0.2419,-0.2421,-0.2567,-0.257,-0.2572,-0.2515,-0.2511,-0.2506,-0.2501,-0.2522,-0.2527,-0.2532,0,0,0,0,0,0,0,0,0,0,0,0,0,-0.2384,-0.2288,-0.2418,-0.2407,-0.2407,-0.2567,-0.257,-0.2573,-0.2516,-0.251,-0.2505,-0.2499,-0.252,-0.2526,-0.2532,-0.2686,0,0,-0.2551,-0.2554,0,0,0,0,0,0,0,0,-0.2378,-0.2389,-0.2407,-0.2408,-0.2408,-0.2513,-0.2531,-0.2603,-0.2518,-0.2479,-0.2503,-0.2496,-0.2509,-0.2516,-0.2565,-0.2687,-0.2688,-0.2552,-0.2555,-0.2558,-0.256,0,0,0,0,0,0,0,-0.2371,-0.2383,-0.2481,-0.2409,-0.241,-0.2464,-0.247,-0.2546,-0.2526,-0.2482,-0.2477,-0.2489,-0.2508,-0.2559,-0.2564,-0.2688,-0.2552,-0.2557,-0.2561,-0.2563,-0.2677,-0.2676,0,0,0,0,0,0,-0.234,-0.2377,-0.2477,-0.2486,-0.2374,-0.247,-0.2477,-0.2489,-0.2528,-0.2528,-0.2494,-0.2486,-0.2552,-0.2557,-0.2565,-0.2584,-0.2558,-0.2564,-0.2567,-0.2678,-0.2677,-0.2676,0,0,0,0,0,0,-0.2337,-0.2348,-0.247,-0.2431,-0.2449,-0.2476,-0.2491,-0.2494,-0.2515,-0.2537,-0.2534,-0.2504,-0.2547,-0.2556,-0.2613,-0.2589,-0.2567,-0.2572,-0.2678,-0.2677,-0.2676,-0.2727,0,0,0,0,0,0,-0.2333,-0.2346,-0.235,-0.2429,-0.245,-0.2559,-0.2496,-0.2501,-0.253,-0.252,-0.2548,-0.2545,-0.2543,-0.2604,-0.2619,-0.2597,-0.2577,-0.2679,-0.2678,-0.2677,-0.2726,-0.2728,-0.2729,0,0,0,0,0,-0.2328,-0.2353,-0.235,-0.2362,-0.2453,-0.2562,-0.258,-0.2582,-0.2536,-0.2574,-0.2574,-0.2542,-0.2601,-0.2613,-0.2629,-0.2608,-0.268,-0.2678,-0.2677,-0.2726,-0.2728,-0.2729,0,0,0,0,0,0,-0.2295,-0.2352,-0.2349,-0.2387,-0.2465,-0.2549,-0.2579,-0.259,-0.2632,-0.26,-0.2599,-0.2602,-0.263,-0.2624,-0.2635,-0.2625,-0.2611,-0.2613,-0.2641,-0.2644,-0.2645,-0.2618,-0.2582,0,0,0,0,0,-0.2294,-0.2321,-0.2399,-0.2431,-0.2464,-0.2525,-0.2565,-0.258,-0.2625,-0.2635,-0.2666,-0.2655,-0.2652,-0.265,-0.2678,-0.2724,-0.2685,-0.2694,-0.2696,-0.2698,-0.2681,-0.2625,-0.262,-0.2671,-0.2671,-0.2671,0,0,-0.2289,-0.2324,-0.2338,-0.2427,-0.2475,-0.2546,-0.2535,-0.2602,-0.2631,-0.2637,-0.2689,-0.2701,-0.2672,-0.2698,-0.2701,-0.268,-0.2665,-0.2696,-0.2698,-0.268,-0.2623,-0.2618,-0.2613,-0.267,-0.267,-0.267,0,0,-0.2308,-0.2327,-0.2361,-0.243,-0.2509,-0.256,-0.2575,-0.2677,-0.2677,-0.2771,-0.2724,-0.2727,-0.2791,-0.2738,-0.2714,-0.2747,-0.2694,-0.2728,-0.2706,-0.2653,-0.2648,-0.2644,-0.2603,-0.2594,-0.2707,-0.2707,-0.2707,0,-0.2296,-0.234,-0.2396,-0.2457,-0.2489,-0.2559,-0.2606,-0.2659,-0.2764,-0.2751,-0.2777,-0.279,-0.2796,-0.2726,-0.2725,-0.2749,-0.2713,-0.271,-0.2656,-0.265,-0.2645,-0.2604,-0.2594,-0.2709,-0.2709,-0.2708,-0.2708,0,-0.2351,-0.2385,-0.2416,-0.2495,-0.2555,-0.2615,-0.2682,-0.2733,-0.2757,-0.279,-0.2783,-0.2814,-0.2786,-0.2782,-0.2778,-0.2705,-0.2694,-0.2687,-0.2657,-0.2643,-0.26,-0.2589,-0.2712,-0.2711,-0.2711,-0.271,0,0,-0.2314,-0.2425,-0.2431,-0.2451,-0.2564,-0.2616,-0.2659,-0.2702,-0.2688,-0.2781,-0.2749,-0.2762,-0.2758,-0.2727,-0.2702,-0.2663,-0.2625,-0.2659,-0.2655,-0.2628,-0.2509,-0.2436,-0.2417,-0.2609,-0.2607,-0.2605,-0.2501,0,-0.2326,-0.2406,-0.2463,-0.2527,-0.2566,-0.2622,-0.2654,-0.2694,-0.2729,-0.2745,-0.2712,-0.271,-0.2731,-0.2712,-0.2678,-0.2647,-0.2593,-0.2653,-0.2516,-0.2512,-0.2457,-0.24,-0.2298,-0.219,-0.249,-0.2488,-0.2486,0,-0.2346,-0.239,-0.2441,-0.2495,-0.2513,-0.2563,-0.2574,-0.262,-0.2635,-0.2652,-0.2633,-0.2641,-0.2589,-0.2625,-0.2536,-0.2573,-0.2535,-0.2516,-0.2511,-0.241,-0.2416,-0.2247,-0.2157,-0.216,-0.2468,-0.247,-0.2471,0,-0.2266,-0.2361,-0.2378,-0.2411,-0.2505,-0.2499,-0.2538,-0.2571,-0.2574,-0.2579,-0.2585,-0.2543,-0.2522,-0.2476,-0.2463,-0.2489,-0.2376,-0.2399,-0.2285,-0.228,-0.2146,-0.2132,-0.2043,-0.2306,-0.2306,-0.2306,-0.2307,0,-0.2243,-0.2257,-0.2338,-0.2356,-0.2353,-0.2435,-0.2425,-0.2459,-0.2486,-0.2476,-0.2515,-0.249,-0.2487,-0.2443,-0.2424,-0.2314,-0.233,-0.2255,-0.2232,-0.2162,-0.2151,-0.2109,-0.2157,-0.2303,-0.2303,-0.2304,-0.2305,0,-0.2156,-0.2221,-0.2244,-0.2311,-0.2322,-0.2318,-0.2368,-0.2363,-0.241,-0.2397,-0.2394,-0.2426,-0.2365,-0.2348,-0.2276,-0.2243,-0.2123,-0.2115,-0.2043,-0.2012,-0.1902,-0.1957,-0.184,-0.1781,-0.1956,-0.1953,-0.1951,0,-0.2118,-0.2123,-0.2182,-0.2183,-0.2208,-0.2222,-0.2225,-0.2299,-0.2307,-0.2348,-0.2328,-0.2293,-0.2233,-0.2115,-0.2044,-0.1941,-0.1992,-0.1812,-0.183,-0.1849,-0.1895,-0.1958,-0.1923,-0.1684,-0.168,-0.1676,-0.1673,0,-0.2026,-0.2047,-0.2063,-0.2066,-0.2071,-0.2083,-0.2105,-0.2107,-0.2186,-0.2183,-0.2163,-0.2117,-0.2012,-0.1873,-0.1769,-0.1706,-0.1779,-0.1735,-0.1756,-0.1659,-0.1716,-0.1663,-0.183,-0.1642,-0.1645,-0.1648,-0.1649,-0.1651,-0.1933,-0.1917,-0.1935,-0.1922,-0.1933,-0.1925,-0.1884,-0.1927,-0.1917,-0.1886,-0.1961,-0.1852,-0.1795,-0.1615,-0.1543,-0.1424,-0.1511,-0.1404,-0.1466,-0.1526,-0.1468,-0.1571,-0.1361,-0.1362,-0.1364,-0.1365,-0.1366,0,-0.1803,-0.1797,-0.1786,-0.1768,-0.172,-0.1777,-0.1777,-0.1721,-0.1659,-0.1655,-0.1611,-0.1553,-0.1431,-0.1383,-0.1284,-0.1209,-0.1185,-0.1198,-0.1269,-0.1241,-0.1305,-0.1291,-0.1053,-0.1053,-0.1053,-0.1053,-0.1053,-0.1053,-0.1736,-0.1677,-0.1671,-0.155,-0.1532,-0.1424,-0.1394,-0.1348,-0.1317,-0.1207,-0.1156,-0.1107,-0.117,-0.1363,-0.1266,-0.1178,-0.1178,-0.1127,-0.1176,-0.1254,-0.1279,-0.1304,-0.13,-0.1067,-0.1068,-0.1042,-0.1042,-0.1043]},{"header":{"parameterUnit":"m.s-1","parameterCategory":2,"la1":30.2991,"la2":30.254,"lo1":-89.0895,"lo2":-89.0444,"dy":0.0017,"dx":0.0017,"nx":28,"ny":28,"refTime":"2025-03-10T21:00:00:Z","depth":"0","parameterNumber":3,"parameterNumberName":"V-component_of_CURRENTS"},"data":[0,0,0,0,0,0,0,0,0,0,0,0,0,0,0,0,0,0,0,0,0,0,0,0,0,0,0,0,0,0,0,0,0,0,0,0,0,0,0,0,0,0,0,0,0,0,0,0,0,0,0,0,0,0,0,0,0,0,-0.0367,-0.0366,0,-0.0303,-0.0302,-0.0301,-0.0244,-0.0244,-0.0243,-0.0243,0.005,0.0057,0.0065,0,0,0,0,0,0,0,0,0,0,0,0,0,-0.0385,-0.0385,-0.0367,-0.0366,-0.0366,-0.0303,-0.0302,-0.03,-0.0244,-0.0244,-0.0243,-0.0243,0.0048,0.0056,0.0065,0,0,0,0,0,0,0,0,0,0,0,0,0,-0.0353,-0.0385,-0.0367,-0.0332,-0.0328,-0.0303,-0.0302,-0.03,-0.0244,-0.0244,-0.0243,-0.0242,0.0045,0.0056,0.0066,0.0122,0,0,0.01,0.0105,0,0,0,0,0,0,0,0,-0.0355,-0.0352,-0.0338,-0.0334,-0.033,-0.0283,-0.0201,-0.0149,-0.0244,-0.0274,-0.0243,-0.0242,-0.0042,-0.0024,-0.0013,0.0135,0.0148,0.0101,0.0108,0.0113,0.0116,0,0,0,0,0,0,0,-0.0357,-0.0354,-0.0339,-0.0337,-0.0333,-0.03,-0.0295,-0.0191,-0.0156,-0.0271,-0.0267,-0.0264,-0.0038,-0.0024,-0.0005,0.0152,0.0101,0.0111,0.0118,0.0122,0.0451,0.0453,0,0,0,0,0,0,-0.0373,-0.0357,-0.0341,-0.0337,-0.0344,-0.0301,-0.0295,-0.0297,-0.0162,-0.0144,-0.0265,-0.0262,-0.0043,-0.0018,0.0006,0.0099,0.0113,0.0123,0.0129,0.0449,0.0451,0.0454,0,0,0,0,0,0,-0.0374,-0.0373,-0.0344,-0.0347,-0.0341,-0.0302,-0.0304,-0.0296,-0.0282,-0.016,-0.0137,-0.026,-0.0042,-0.001,0.0124,0.0111,0.0128,0.0138,0.0446,0.045,0.0452,0.0275,0,0,0,0,0,0,-0.0375,-0.0374,-0.0378,-0.0348,-0.0342,-0.0336,-0.0304,-0.0295,-0.0282,-0.0277,-0.0147,-0.012,-0.0039,0.0107,0.0135,0.0126,0.0147,0.0444,0.0448,0.0451,0.0278,0.0272,0.0266,0,0,0,0,0,-0.0376,-0.0393,-0.0378,-0.0376,-0.035,-0.0337,-0.033,-0.0298,-0.0283,-0.0282,-0.0169,-0.0124,0.0152,0.0118,0.0151,0.0144,0.0442,0.0447,0.0451,0.0281,0.0273,0.0267,0,0,0,0,0,0,-0.0404,-0.0389,-0.0371,-0.0382,-0.0362,-0.0328,-0.0327,-0.0305,-0.0225,-0.021,-0.0091,-0.0055,0.0056,0.0144,0.0103,0.026,0.0302,0.0314,0.0162,0.0156,0.015,0.0086,0.0156,0,0,0,0,0,-0.0413,-0.0419,-0.0395,-0.0402,-0.0397,-0.0362,-0.0352,-0.0334,-0.0265,-0.0233,-0.0134,-0.0012,0.01,0.016,0.0276,0.0361,0.0409,0.0384,0.0378,0.0371,0.0348,0.0399,0.0392,0.0469,0.0469,0.0469,0,0,-0.0425,-0.0417,-0.042,-0.0408,-0.0389,-0.0383,-0.0354,-0.035,-0.0329,-0.0206,-0.0126,-0.0025,0.0125,0.0219,0.0275,0.0287,0.0382,0.0377,0.0369,0.035,0.0403,0.0394,0.0386,0.0472,0.0472,0.0471,0,0,-0.0463,-0.0447,-0.0468,-0.0454,-0.0439,-0.0409,-0.0411,-0.0372,-0.0339,-0.0246,-0.0158,-0.0077,0.0119,0.0179,0.0249,0.0285,0.0353,0.0342,0.0246,0.0295,0.0287,0.028,0.0335,0.0334,0.0329,0.0329,0.0329,0,-0.0477,-0.0496,-0.047,-0.0484,-0.0476,-0.0423,-0.0437,-0.0393,-0.0308,-0.0281,-0.0226,-0.0013,0.0089,0.0171,0.0177,0.0258,0.0312,0.0244,0.0277,0.0271,0.0267,0.0325,0.0327,0.0321,0.0322,0.0323,0.0323,0,-0.0529,-0.0537,-0.0549,-0.0539,-0.0524,-0.0529,-0.0473,-0.0441,-0.0378,-0.0331,-0.0231,-0.01,0.0012,0.0056,0.0131,0.0152,0.0208,0.0257,0.0265,0.0246,0.0312,0.0317,0.0309,0.0312,0.0315,0.0317,0,0,-0.0576,-0.0585,-0.0587,-0.0594,-0.0557,-0.0554,-0.0516,-0.0477,-0.0461,-0.0361,-0.0329,-0.0185,-0.0146,-0.0067,0.0015,0.0042,0.0049,0.0121,0.0128,0.0123,0.0167,0.0223,0.0234,0.01,0.01,0.01,0.0223,0,-0.0621,-0.0668,-0.0649,-0.0666,-0.0681,-0.0625,-0.0593,-0.0548,-0.0475,-0.0421,-0.0326,-0.0238,-0.0178,-0.0135,-0.0105,0.0028,0.0054,0.0011,0.0233,0.024,0.0247,0.0238,0.0306,0.0422,0.0228,0.0229,0.0229,0,-0.0676,-0.0699,-0.0741,-0.0738,-0.0739,-0.073,-0.0691,-0.0658,-0.0575,-0.052,-0.0456,-0.0356,-0.0295,-0.0232,-0.0082,-0.0105,0.0003,0.0093,0.0102,0.0211,0.0303,0.0419,0.0439,0.0624,0.0237,0.0236,0.0236,0,-0.0732,-0.0757,-0.0794,-0.0793,-0.0779,-0.0782,-0.0759,-0.0697,-0.0674,-0.0592,-0.056,-0.0455,-0.0383,-0.0258,-0.0074,-0.0072,0.0103,0.0142,0.029,0.0296,0.0425,0.0443,0.0602,0.0228,0.0227,0.0227,0.0227,0,-0.0789,-0.0815,-0.0827,-0.0847,-0.0879,-0.0844,-0.0854,-0.0816,-0.0762,-0.0744,-0.0628,-0.0575,-0.0387,-0.025,-0.0099,0.0111,0.0091,0.0262,0.0324,0.0372,0.0383,0.061,0.0674,0.0232,0.0231,0.023,0.0229,0,-0.0845,-0.0854,-0.0898,-0.0908,-0.0912,-0.0934,-0.0924,-0.0927,-0.0868,-0.084,-0.0816,-0.0657,-0.0471,-0.0272,-0.0039,0.0093,0.0407,0.0364,0.0408,0.0471,0.0762,0.0813,0.1018,0.1139,0.0534,0.0536,0.0538,0,-0.0878,-0.0911,-0.0952,-0.0982,-0.0991,-0.1014,-0.1029,-0.0985,-0.0984,-0.0882,-0.0872,-0.0684,-0.0527,-0.0163,0.0107,0.0387,0.0521,0.0601,0.06,0.0775,0.088,0.0911,0.1,0.0717,0.072,0.0722,0.0724,0,-0.0934,-0.095,-0.0987,-0.1055,-0.109,-0.1127,-0.1142,-0.1159,-0.11,-0.1041,-0.0916,-0.0773,-0.0406,-0.0038,0.0319,0.049,0.0747,0.0658,0.0841,0.1022,0.1069,0.1217,0.064,0.0746,0.0744,0.0742,0.0741,0.074,-0.0964,-0.1009,-0.1061,-0.112,-0.1169,-0.1226,-0.1243,-0.1242,-0.1214,-0.1077,-0.0939,-0.0612,-0.0135,0.0397,0.0578,0.1006,0.0945,0.1146,0.1191,0.1205,0.1323,0.0782,0.0954,0.0953,0.0952,0.0952,0.0951,0,-0.0995,-0.1048,-0.1116,-0.119,-0.1248,-0.1259,-0.13,-0.1281,-0.1236,-0.1004,-0.0812,-0.0144,0.033,0.0775,0.1309,0.1536,0.1587,0.1649,0.1725,0.179,0.1331,0.1342,0.1606,0.1606,0.1606,0.1606,0.1606,0.1605,-0.1013,-0.1087,-0.1127,-0.1229,-0.1278,-0.1314,-0.1328,-0.128,-0.1114,-0.0698,-0.0238,0.011,0.0721,0.1485,0.198,0.2028,0.2239,0.2206,0.2308,0.2007,0.1964,0.1922,0.195,0.2338,0.2338,0.2784,0.2788,0.2791]}],[{"header":{"parameterUnit":"m.s-1","parameterCategory":2,"la1":30.2991,"la2":30.254,"lo1":-89.0895,"lo2":-89.0444,"dy":0.0017,"dx":0.0017,"nx":28,"ny":28,"refTime":"2025-03-10T21:00:00:Z","depth":"2","parameterNumber":2,"parameterNumberName":"U-component_of_CURRENTS"},"data":[0,0,0,0,0,0,0,0,0,0,0,0,0,0,0,0,0,0,0,0,0,0,0,0,0,0,0,0,0,0,0,0,0,0,0,0,0,0,0,0,0,0,0,0,0,0,0,0,0,0,0,0,0,0,0,0,0,0,-0.2259,-0.226,0,-0.232,-0.232,-0.232,-0.2278,-0.2277,-0.2275,-0.2274,-0.2234,-0.2235,-0.2235,0,0,0,0,0,0,0,0,0,0,0,0,0,-0.2154,-0.2155,-0.2259,-0.226,-0.2261,-0.2319,-0.232,-0.2321,-0.2279,-0.2277,-0.2275,-0.2273,-0.2234,-0.2235,-0.2235,0,0,0,0,0,0,0,0,0,0,0,0,0,-0.2202,-0.2156,-0.2259,-0.225,-0.225,-0.2319,-0.232,-0.2321,-0.2279,-0.2277,-0.2274,-0.2272,-0.2234,-0.2235,-0.2235,-0.2288,0,0,-0.2237,-0.2238,0,0,0,0,0,0,0,0,-0.22,-0.2206,-0.225,-0.225,-0.2251,-0.2292,-0.2269,-0.2306,-0.228,-0.2265,-0.2274,-0.2271,-0.2248,-0.2247,-0.2261,-0.2286,-0.2284,-0.2237,-0.2238,-0.2238,-0.2238,0,0,0,0,0,0,0,-0.2196,-0.2203,-0.228,-0.2251,-0.2252,-0.2259,-0.2262,-0.2276,-0.2265,-0.2266,-0.2264,-0.2276,-0.2247,-0.2261,-0.226,-0.2284,-0.2237,-0.2238,-0.2238,-0.2239,-0.2303,-0.2304,0,0,0,0,0,0,-0.2196,-0.22,-0.2278,-0.2282,-0.2222,-0.2262,-0.2266,-0.2278,-0.2267,-0.2265,-0.2278,-0.2274,-0.2261,-0.2259,-0.2258,-0.2275,-0.2238,-0.2239,-0.2239,-0.2301,-0.2303,-0.2304,0,0,0,0,0,0,-0.2193,-0.2202,-0.2276,-0.2245,-0.2255,-0.2267,-0.2281,-0.2281,-0.2288,-0.2278,-0.2272,-0.2284,-0.2259,-0.2257,-0.226,-0.2274,-0.2239,-0.224,-0.23,-0.2302,-0.2304,-0.2337,0,0,0,0,0,0,-0.219,-0.2201,-0.2206,-0.2245,-0.2257,-0.2309,-0.2284,-0.2284,-0.2301,-0.2296,-0.2282,-0.2276,-0.2257,-0.2259,-0.2261,-0.2275,-0.224,-0.2298,-0.2301,-0.2303,-0.2334,-0.234,-0.2345,0,0,0,0,0,-0.2186,-0.2207,-0.2206,-0.2215,-0.2264,-0.231,-0.2316,-0.2315,-0.2304,-0.2311,-0.2298,-0.2276,-0.2275,-0.2261,-0.2263,-0.2277,-0.2297,-0.23,-0.2303,-0.2332,-0.2339,-0.2344,0,0,0,0,0,0,-0.216,-0.2206,-0.2205,-0.2237,-0.2266,-0.2303,-0.2318,-0.2323,-0.2325,-0.2317,-0.2295,-0.229,-0.2296,-0.2292,-0.2276,-0.2304,-0.2283,-0.2286,-0.2305,-0.2311,-0.2316,-0.2302,-0.2241,0,0,0,0,0,-0.2161,-0.2185,-0.2227,-0.2249,-0.2269,-0.2296,-0.2314,-0.232,-0.2333,-0.2331,-0.2321,-0.2315,-0.2316,-0.2314,-0.2313,-0.2338,-0.2307,-0.2348,-0.2354,-0.2358,-0.2349,-0.2322,-0.2323,-0.2314,-0.2314,-0.2314,0,0,-0.2158,-0.2186,-0.2198,-0.2245,-0.2269,-0.23,-0.2299,-0.2336,-0.235,-0.2329,-0.2335,-0.2332,-0.2326,-0.234,-0.2343,-0.2334,-0.2346,-0.2361,-0.2365,-0.2353,-0.2325,-0.2325,-0.2326,-0.2316,-0.2316,-0.2315,0,0,-0.2168,-0.2189,-0.2214,-0.2243,-0.2288,-0.2308,-0.232,-0.236,-0.2363,-0.2386,-0.2367,-0.237,-0.2381,-0.2373,-0.2372,-0.2412,-0.2372,-0.2421,-0.2437,-0.2411,-0.2411,-0.241,-0.2373,-0.2369,-0.2426,-0.2426,-0.2426,0,-0.2159,-0.2192,-0.2227,-0.226,-0.2281,-0.2311,-0.2339,-0.2361,-0.239,-0.2394,-0.2385,-0.2396,-0.2393,-0.2401,-0.2414,-0.2421,-0.2395,-0.2411,-0.2415,-0.2414,-0.2412,-0.2375,-0.2369,-0.2428,-0.2427,-0.2427,-0.2427,0,-0.2188,-0.2213,-0.2235,-0.2277,-0.2306,-0.2339,-0.2377,-0.2397,-0.2407,-0.242,-0.243,-0.243,-0.2428,-0.2442,-0.2441,-0.2443,-0.2423,-0.242,-0.2393,-0.2415,-0.2374,-0.2368,-0.243,-0.243,-0.2429,-0.2429,0,0,-0.2163,-0.2238,-0.2242,-0.2257,-0.2316,-0.2341,-0.2377,-0.2411,-0.2421,-0.2443,-0.2445,-0.2465,-0.246,-0.246,-0.2461,-0.2451,-0.2429,-0.2438,-0.2435,-0.2389,-0.236,-0.2278,-0.2264,-0.2424,-0.2423,-0.2422,-0.2334,0,-0.2167,-0.2216,-0.2258,-0.2292,-0.2317,-0.2359,-0.2385,-0.2418,-0.2438,-0.2448,-0.2456,-0.2459,-0.2469,-0.2467,-0.2461,-0.2439,-0.2414,-0.2452,-0.2355,-0.2352,-0.2267,-0.2254,-0.2104,-0.2006,-0.2328,-0.2327,-0.2326,0,-0.2168,-0.2202,-0.2238,-0.2289,-0.2305,-0.2328,-0.2363,-0.2395,-0.2427,-0.2442,-0.2452,-0.2454,-0.2454,-0.2453,-0.2411,-0.2434,-0.2395,-0.2374,-0.237,-0.2273,-0.2259,-0.2038,-0.1982,-0.2315,-0.2316,-0.2317,-0.2318,0,-0.211,-0.2179,-0.22,-0.222,-0.2289,-0.2305,-0.2337,-0.2381,-0.2399,-0.2429,-0.2432,-0.2438,-0.2426,-0.2396,-0.2366,-0.2384,-0.2301,-0.2316,-0.2199,-0.2193,-0.2033,-0.2013,-0.2259,-0.226,-0.226,-0.226,-0.226,0,-0.2085,-0.2099,-0.2172,-0.2181,-0.2198,-0.2264,-0.228,-0.2319,-0.2359,-0.2365,-0.2413,-0.2403,-0.241,-0.2374,-0.2347,-0.2246,-0.2279,-0.2183,-0.2159,-0.2042,-0.2025,-0.2273,-0.2275,-0.2257,-0.2257,-0.2258,-0.2259,0,-0.2009,-0.2063,-0.2084,-0.2152,-0.2169,-0.2176,-0.2236,-0.2246,-0.2304,-0.231,-0.2316,-0.2357,-0.2308,-0.2293,-0.2235,-0.2199,-0.2129,-0.2079,-0.1938,-0.1898,-0.2042,-0.2048,-0.1936,-0.1933,-0.1929,-0.1927,-0.1925,0,-0.1972,-0.1976,-0.2036,-0.2042,-0.2069,-0.2097,-0.2113,-0.2194,-0.2211,-0.227,-0.2258,-0.2239,-0.2186,-0.2081,-0.2006,-0.1908,-0.2006,-0.1736,-0.1742,-0.2018,-0.2006,-0.2017,-0.2027,-0.1545,-0.154,-0.1536,-0.1532,0,-0.1889,-0.191,-0.1929,-0.1942,-0.1957,-0.1978,-0.2014,-0.2021,-0.2109,-0.2117,-0.2107,-0.207,-0.1972,-0.1808,-0.1705,-0.1641,-0.1747,-0.1646,-0.1946,-0.166,-0.1644,-0.1635,-0.1658,-0.1495,-0.1499,-0.1501,-0.1503,-0.1505,-0.1811,-0.18,-0.1821,-0.1819,-0.1841,-0.184,-0.1805,-0.1856,-0.1856,-0.1841,-0.1908,-0.18,-0.1767,-0.1511,-0.141,-0.1334,-0.1457,-0.1418,-0.1433,-0.1452,-0.1431,-0.1412,-0.1215,-0.1217,-0.1218,-0.122,-0.1221,0,-0.1702,-0.17,-0.1696,-0.1689,-0.1656,-0.1711,-0.1714,-0.1653,-0.1599,-0.162,-0.1581,-0.1397,-0.1275,-0.1238,-0.105,-0.101,-0.1015,-0.0981,-0.1004,-0.1041,-0.1073,-0.1037,-0.0713,-0.0712,-0.0711,-0.0709,0,0,-0.1646,-0.1599,-0.1593,-0.1498,-0.1488,-0.1395,-0.1363,-0.1299,-0.127,-0.118,-0.1134,-0.1219,-0.1209,-0.0985,-0.0913,-0.0782,-0.0904,-0.0733,-0.1138,-0.1202,-0.1233,-0.1318,-0.1301,0,0,0,0,0]},{"header":{"parameterUnit":"m.s-1","parameterCategory":2,"la1":30.2991,"la2":30.254,"lo1":-89.0895,"lo2":-89.0444,"dy":0.0017,"dx":0.0017,"nx":28,"ny":28,"refTime":"2025-03-10T21:00:00:Z","depth":"2","parameterNumber":3,"parameterNumberName":"V-component_of_CURRENTS"},"data":[0,0,0,0,0,0,0,0,0,0,0,0,0,0,0,0,0,0,0,0,0,0,0,0,0,0,0,0,0,0,0,0,0,0,0,0,0,0,0,0,0,0,0,0,0,0,0,0,0,0,0,0,0,0,0,0,0,0,-0.0265,-0.0264,0,-0.022,-0.0219,-0.0219,-0.0166,-0.0165,-0.0165,-0.0164,-0.0058,-0.0056,-0.0054,0,0,0,0,0,0,0,0,0,0,0,0,0,-0.0268,-0.0268,-0.0265,-0.0264,-0.0264,-0.022,-0.0219,-0.0219,-0.0166,-0.0165,-0.0165,-0.0164,-0.0059,-0.0056,-0.0054,0,0,0,0,0,0,0,0,0,0,0,0,0,-0.0248,-0.0268,-0.0265,-0.0233,-0.023,-0.022,-0.0219,-0.0218,-0.0166,-0.0165,-0.0164,-0.0163,-0.006,-0.0057,-0.0053,-0.0054,0,0,-0.0043,-0.0042,0,0,0,0,0,0,0,0,-0.025,-0.0248,-0.0238,-0.0236,-0.0232,-0.0199,-0.0182,-0.0161,-0.0167,-0.0189,-0.0164,-0.0163,-0.0101,-0.0094,-0.0087,-0.0049,-0.0045,-0.0043,-0.0041,-0.004,-0.0039,0,0,0,0,0,0,0,-0.0251,-0.025,-0.0246,-0.0238,-0.0234,-0.0209,-0.0205,-0.0177,-0.015,-0.0187,-0.0184,-0.0181,-0.0098,-0.0091,-0.0084,-0.0043,-0.0043,-0.004,-0.0038,-0.0037,0.0041,0.0041,0,0,0,0,0,0,-0.0262,-0.0251,-0.0247,-0.0245,-0.024,-0.021,-0.0205,-0.0209,-0.0151,-0.0142,-0.0182,-0.0179,-0.0097,-0.0088,-0.008,-0.0052,-0.004,-0.0037,-0.0035,0.0041,0.0041,0.0041,0,0,0,0,0,0,-0.0263,-0.0263,-0.0249,-0.0247,-0.0244,-0.0211,-0.0216,-0.0209,-0.0198,-0.0148,-0.0137,-0.0178,-0.0096,-0.0085,-0.0057,-0.0049,-0.0035,-0.0032,0.0041,0.0041,0.0041,-0.0012,0,0,0,0,0,0,-0.0263,-0.0263,-0.0268,-0.0248,-0.0244,-0.0251,-0.0217,-0.0209,-0.0199,-0.0194,-0.0141,-0.013,-0.0094,-0.0062,-0.0053,-0.0044,-0.003,0.0041,0.0041,0.0041,-0.0011,-0.0014,-0.0017,0,0,0,0,0,-0.0263,-0.0283,-0.0269,-0.0268,-0.0253,-0.0252,-0.0248,-0.0219,-0.02,-0.0204,-0.0164,-0.0132,-0.0054,-0.006,-0.005,-0.0039,0.0041,0.0041,0.0041,-0.0009,-0.0013,-0.0017,0,0,0,0,0,0,-0.029,-0.0279,-0.0263,-0.0278,-0.0266,-0.0243,-0.0245,-0.0225,-0.0198,-0.0191,-0.0138,-0.0125,-0.0098,-0.0064,-0.0071,-0.0015,0.0002,0.0004,-0.004,-0.0043,-0.0046,-0.0051,-0.0027,0,0,0,0,0,-0.0298,-0.0307,-0.0291,-0.0301,-0.0299,-0.0272,-0.0266,-0.025,-0.0225,-0.0212,-0.0174,-0.0128,-0.009,-0.0064,-0.0033,-0.0006,0.0036,0.0011,0.0008,0.0005,0.0009,0.0073,0.0076,0.0042,0.0042,0.0042,0,0,-0.031,-0.0306,-0.0309,-0.0307,-0.0294,-0.03,-0.0266,-0.0267,-0.026,-0.0205,-0.0184,-0.0146,-0.0089,-0.0058,-0.0041,-0.0026,0.0035,0.0005,0.0002,0.0008,0.0073,0.0077,0.0079,0.0042,0.0042,0.0042,0,0,-0.0349,-0.0337,-0.0359,-0.0353,-0.0344,-0.0325,-0.0329,-0.0308,-0.0285,-0.0269,-0.022,-0.0174,-0.013,-0.0074,-0.0042,-0.0041,0.0008,-0.0034,-0.0042,0.0019,0.0022,0.0026,0.0075,0.0083,-0.0026,-0.0026,-0.0026,0,-0.0363,-0.0386,-0.0365,-0.0384,-0.0379,-0.0341,-0.0359,-0.0334,-0.0304,-0.0281,-0.0271,-0.0179,-0.0131,-0.0067,-0.0063,-0.0046,-0.0013,-0.0036,0.0015,0.0019,0.0024,0.0073,0.0083,-0.0028,-0.0028,-0.0028,-0.0027,0,-0.0418,-0.043,-0.0444,-0.0448,-0.0441,-0.0452,-0.0417,-0.0401,-0.037,-0.0335,-0.0281,-0.0214,-0.0153,-0.0128,-0.0095,-0.0034,-0.0023,-0.0006,0.0021,0.0024,0.0076,0.0087,-0.0032,-0.0031,-0.003,-0.003,0,0,-0.0463,-0.048,-0.0483,-0.0491,-0.0474,-0.0477,-0.046,-0.0429,-0.041,-0.0361,-0.0324,-0.0242,-0.0199,-0.0158,-0.0101,-0.0038,0.0024,-0.0014,-0.0009,0.003,0.0147,0.0172,0.0187,0.0043,0.0044,0.0046,0.0167,0,-0.0509,-0.0561,-0.0547,-0.0575,-0.0594,-0.0547,-0.0533,-0.0494,-0.0447,-0.0403,-0.0307,-0.0257,-0.0211,-0.0179,-0.011,-0.0015,0.0052,-0.0011,0.0144,0.0149,0.0167,0.0201,0.0184,0.0292,0.0179,0.018,0.0182,0,-0.0566,-0.059,-0.0636,-0.0634,-0.0636,-0.0641,-0.0602,-0.0584,-0.0501,-0.0463,-0.0386,-0.0317,-0.021,-0.0178,-0.0004,-0.0052,0.0042,0.012,0.0127,0.0179,0.0195,0.0275,0.0318,0.0201,0.02,0.0198,0.0197,0,-0.0613,-0.0645,-0.0682,-0.0684,-0.068,-0.068,-0.0666,-0.0604,-0.0581,-0.0495,-0.0467,-0.034,-0.0269,-0.0141,0.0019,0.0006,0.0205,0.0211,0.0328,0.033,0.0364,0.0366,0.034,0.034,0.034,0.034,0.0339,0,-0.0667,-0.0694,-0.071,-0.0732,-0.076,-0.0732,-0.0736,-0.0701,-0.064,-0.0606,-0.0502,-0.0437,-0.0257,-0.0122,0.0012,0.0206,0.0205,0.0339,0.0372,0.0343,0.0342,0.03,0.0294,0.0344,0.0343,0.0342,0.0341,0,-0.0715,-0.0728,-0.0772,-0.0784,-0.079,-0.0809,-0.0796,-0.079,-0.073,-0.0681,-0.0654,-0.0497,-0.0317,-0.0137,0.0091,0.0205,0.038,0.0451,0.0399,0.0424,0.0463,0.0453,0.0591,0.0593,0.0595,0.0597,0.0598,0,-0.0745,-0.0776,-0.0818,-0.0846,-0.0857,-0.0877,-0.0887,-0.0842,-0.0826,-0.0707,-0.0681,-0.05,-0.035,-0.002,0.0209,0.045,0.0446,0.0571,0.0556,0.0475,0.0493,0.048,0.0467,0.0578,0.0579,0.058,0.058,0,-0.0792,-0.0809,-0.0844,-0.0908,-0.0939,-0.0966,-0.0971,-0.0969,-0.0896,-0.0821,-0.068,-0.0548,-0.0236,0.0045,0.0342,0.0479,0.0525,0.0596,0.0551,0.0508,0.0471,0.0485,0.0472,0.0587,0.0587,0.0586,0.0586,0.0585,-0.0818,-0.0858,-0.0907,-0.0961,-0.1003,-0.1036,-0.104,-0.1007,-0.095,-0.0803,-0.068,-0.0444,-0.0197,0.0244,0.0443,0.0621,0.0622,0.0676,0.0671,0.0665,0.0633,0.06,0.0735,0.0735,0.0735,0.0735,0.0735,0,-0.0843,-0.0891,-0.0952,-0.1016,-0.1063,-0.1072,-0.1078,-0.1034,-0.094,-0.0775,-0.0593,-0.0291,0.0016,0.025,0.0547,0.0722,0.0696,0.074,0.0676,0.067,0.0664,0.0628,0.0731,0.0731,0.0731,0.0731,0,0,-0.086,-0.0924,-0.0959,-0.1043,-0.1086,-0.111,-0.1103,-0.1005,-0.0878,-0.0672,-0.0485,-0.0246,0.0038,0.0248,0.0461,0.0605,0.0586,0.0612,0.0603,0.0497,0.0488,0.0621,0.0558,0,0,0,0,0]}],[{"header":{"parameterUnit":"m.s-1","parameterCategory":2,"la1":30.2991,"la2":30.254,"lo1":-89.0895,"lo2":-89.0444,"dy":0.0017,"dx":0.0017,"nx":28,"ny":28,"refTime":"2025-03-10T21:00:00:Z","depth":"4","parameterNumber":2,"parameterNumberName":"U-component_of_CURRENTS"},"data":[0,0,0,0,0,0,0,0,0,0,0,0,0,0,0,0,0,0,0,0,0,0,0,0,0,0,0,0,0,0,0,0,0,0,0,0,0,0,0,0,0,0,0,0,0,0,0,0,0,0,0,0,0,0,0,0,0,0,-0.1612,-0.1613,0,-0.1675,-0.1675,-0.1676,-0.1696,-0.1696,-0.1696,-0.1696,-0.1725,-0.1726,-0.1727,0,0,0,0,0,0,0,0,0,0,0,0,0,-0.1512,-0.1514,-0.1612,-0.1613,-0.1614,-0.1675,-0.1675,-0.1676,-0.1696,-0.1696,-0.1696,-0.1696,-0.1725,-0.1726,-0.1727,0,0,0,0,0,0,0,0,0,0,0,0,0,-0.1561,-0.1514,-0.1612,-0.1634,-0.1637,-0.1674,-0.1675,-0.1676,-0.1696,-0.1696,-0.1696,-0.1696,-0.1725,-0.1726,-0.1727,-0.1734,0,0,-0.173,-0.1731,0,0,0,0,0,0,0,0,-0.1558,-0.1564,-0.163,-0.1633,-0.1636,-0.168,-0.1651,-0.1695,-0.1696,-0.1671,-0.1696,-0.1696,-0.1709,-0.1711,-0.172,-0.1735,-0.1737,-0.1731,-0.1731,-0.1732,-0.1732,0,0,0,0,0,0,0,-0.1554,-0.1561,-0.1634,-0.1631,-0.1635,-0.1641,-0.1648,-0.1659,-0.1686,-0.1673,-0.1675,-0.1687,-0.171,-0.1718,-0.172,-0.1737,-0.1731,-0.1732,-0.1732,-0.1733,-0.1806,-0.1807,0,0,0,0,0,0,-0.1553,-0.1558,-0.1632,-0.1636,-0.1599,-0.1643,-0.1651,-0.1664,-0.1687,-0.1692,-0.1687,-0.1688,-0.1716,-0.1719,-0.1721,-0.1776,-0.1732,-0.1733,-0.1733,-0.1805,-0.1806,-0.1808,0,0,0,0,0,0,-0.155,-0.1559,-0.163,-0.1601,-0.1611,-0.1645,-0.166,-0.1665,-0.1698,-0.1698,-0.1702,-0.1717,-0.1717,-0.172,-0.1747,-0.1776,-0.1733,-0.1734,-0.1803,-0.1805,-0.1807,-0.1857,0,0,0,0,0,0,-0.1547,-0.1557,-0.1577,-0.1601,-0.1612,-0.1661,-0.166,-0.1666,-0.1704,-0.1707,-0.1725,-0.1726,-0.1717,-0.1746,-0.1748,-0.1776,-0.1735,-0.1802,-0.1804,-0.1807,-0.1854,-0.186,-0.1866,0,0,0,0,0,-0.1543,-0.1566,-0.1577,-0.1587,-0.1634,-0.1662,-0.1668,-0.169,-0.1706,-0.172,-0.1735,-0.1727,-0.1763,-0.1748,-0.175,-0.178,-0.1801,-0.1804,-0.1806,-0.1851,-0.1859,-0.1866,0,0,0,0,0,0,-0.1533,-0.1572,-0.1584,-0.1618,-0.1643,-0.1666,-0.1692,-0.1708,-0.1733,-0.1745,-0.1742,-0.1744,-0.1777,-0.1774,-0.1758,-0.1808,-0.1781,-0.1785,-0.1814,-0.1822,-0.1828,-0.1826,-0.1736,0,0,0,0,0,-0.154,-0.1569,-0.1599,-0.1628,-0.1646,-0.1675,-0.1696,-0.1712,-0.1734,-0.1748,-0.176,-0.1775,-0.1789,-0.1802,-0.1808,-0.184,-0.1819,-0.1861,-0.1867,-0.1872,-0.1874,-0.1873,-0.1879,-0.1817,-0.1817,-0.1817,0,0,-0.1546,-0.1571,-0.1589,-0.1628,-0.1654,-0.1678,-0.1688,-0.1728,-0.1751,-0.1746,-0.1788,-0.1797,-0.1801,-0.183,-0.1846,-0.1834,-0.1877,-0.1876,-0.188,-0.1879,-0.1877,-0.1882,-0.1888,-0.1819,-0.1819,-0.1818,0,0,-0.156,-0.1595,-0.162,-0.1643,-0.1686,-0.1702,-0.172,-0.1758,-0.1782,-0.1818,-0.1821,-0.185,-0.1874,-0.1881,-0.1887,-0.1934,-0.1906,-0.1943,-0.1978,-0.1978,-0.1982,-0.1986,-0.1953,-0.1954,-0.195,-0.195,-0.195,0,-0.1566,-0.1597,-0.163,-0.1654,-0.1679,-0.1715,-0.1741,-0.1769,-0.181,-0.1835,-0.1837,-0.1887,-0.1895,-0.1928,-0.1947,-0.1948,-0.1931,-0.1949,-0.1984,-0.1988,-0.1991,-0.1957,-0.1957,-0.1953,-0.1952,-0.1952,-0.1952,0,-0.1583,-0.1618,-0.1638,-0.1678,-0.1707,-0.174,-0.1778,-0.1817,-0.1854,-0.1877,-0.1928,-0.1941,-0.1969,-0.1983,-0.1982,-0.2018,-0.1991,-0.1988,-0.1963,-0.2,-0.1962,-0.1961,-0.1957,-0.1956,-0.1955,-0.1954,0,0,-0.1566,-0.1637,-0.1645,-0.167,-0.1726,-0.1749,-0.1801,-0.1851,-0.1891,-0.1933,-0.1974,-0.2014,-0.203,-0.2038,-0.2046,-0.2055,-0.2064,-0.204,-0.2038,-0.2001,-0.2041,-0.1899,-0.1883,-0.207,-0.207,-0.2071,-0.1999,0,-0.157,-0.1615,-0.1653,-0.17,-0.1726,-0.1782,-0.1824,-0.1877,-0.1923,-0.1969,-0.2004,-0.204,-0.2048,-0.2069,-0.2083,-0.2073,-0.2067,-0.2082,-0.2015,-0.2012,-0.1877,-0.188,-0.2072,-0.1998,-0.1998,-0.1998,-0.1998,0,-0.1559,-0.1596,-0.1643,-0.1716,-0.1736,-0.1772,-0.1853,-0.1896,-0.1969,-0.2006,-0.2054,-0.2074,-0.211,-0.2103,-0.2101,-0.2112,-0.2081,-0.2064,-0.206,-0.1909,-0.1869,-0.1957,-0.1995,-0.1996,-0.1996,-0.1996,-0.1996,0,-0.1507,-0.1584,-0.1624,-0.1647,-0.1734,-0.1779,-0.1831,-0.1911,-0.195,-0.2029,-0.2055,-0.2102,-0.2116,-0.211,-0.2085,-0.2098,-0.2054,-0.2061,-0.1896,-0.1885,-0.2013,-0.201,-0.204,-0.204,-0.2041,-0.2041,-0.2041,0,-0.1471,-0.1507,-0.161,-0.1628,-0.1686,-0.176,-0.1825,-0.1887,-0.1963,-0.1993,-0.2068,-0.2076,-0.2121,-0.2103,-0.2082,-0.1972,-0.2047,-0.1889,-0.1857,-0.2034,-0.2034,-0.2011,-0.2009,-0.2038,-0.2039,-0.2039,-0.204,0,-0.1394,-0.1464,-0.1515,-0.1622,-0.1659,-0.17,-0.1807,-0.1844,-0.1933,-0.1969,-0.1991,-0.2055,-0.2024,-0.2027,-0.1998,-0.1937,-0.1868,-0.1806,-0.1971,-0.1952,-0.1699,-0.1701,-0.1613,-0.1608,-0.1603,-0.1599,-0.1596,0,-0.1354,-0.1374,-0.1491,-0.1524,-0.1577,-0.1654,-0.1699,-0.181,-0.1841,-0.1931,-0.1926,-0.1937,-0.1954,-0.1785,-0.1821,-0.1736,-0.1718,-0.1673,-0.171,-0.1677,-0.1656,-0.1665,-0.1673,-0.1588,-0.1587,-0.1586,-0.1584,0,-0.1273,-0.1329,-0.1373,-0.144,-0.1498,-0.1552,-0.1626,-0.1632,-0.1742,-0.1836,-0.1796,-0.1764,-0.1712,-0.1678,-0.161,-0.1565,-0.1707,-0.1624,-0.1634,-0.1668,-0.1646,-0.1631,-0.1644,-0.1568,-0.157,-0.1572,-0.1573,0,-0.1214,-0.1226,-0.1291,-0.1335,-0.1406,-0.1423,-0.148,-0.1503,-0.1543,-0.1647,-0.1625,-0.1637,-0.169,-0.1585,-0.1535,-0.1465,-0.1447,-0.1414,-0.1435,-0.1453,-0.1434,-0.1385,-0.1186,0,0,0,0,0,-0.1146,-0.1145,-0.1179,-0.1221,-0.1284,-0.1319,-0.1416,-0.1475,-0.1578,-0.15,-0.1557,-0.1501,-0.1421,-0.1438,-0.1324,-0.1458,-0.1454,-0.1323,-0.1429,-0.1476,-0.1496,-0.1489,0,0,0,0,0,0,-0.1102,-0.113,-0.1136,-0.111,-0.1112,-0.1165,-0.1217,-0.1292,-0.1262,-0.1367,-0.1324,-0.1402,-0.1339,-0.144,-0.1286,-0.1288,-0.1323,-0.134,-0.1336,-0.1466,-0.1483,-0.1498,-0.1498,0,0,0,0,0]},{"header":{"parameterUnit":"m.s-1","parameterCategory":2,"la1":30.2991,"la2":30.254,"lo1":-89.0895,"lo2":-89.0444,"dy":0.0017,"dx":0.0017,"nx":28,"ny":28,"refTime":"2025-03-10T21:00:00:Z","depth":"4","parameterNumber":3,"parameterNumberName":"V-component_of_CURRENTS"},"data":[0,0,0,0,0,0,0,0,0,0,0,0,0,0,0,0,0,0,0,0,0,0,0,0,0,0,0,0,0,0,0,0,0,0,0,0,0,0,0,0,0,0,0,0,0,0,0,0,0,0,0,0,0,0,0,0,0,0,-0.0191,-0.019,0,-0.0174,-0.0174,-0.0174,-0.0139,-0.0138,-0.0138,-0.0137,-0.0074,-0.0073,-0.0072,0,0,0,0,0,0,0,0,0,0,0,0,0,-0.0179,-0.0179,-0.0191,-0.019,-0.019,-0.0174,-0.0174,-0.0174,-0.0139,-0.0138,-0.0138,-0.0137,-0.0074,-0.0073,-0.0072,0,0,0,0,0,0,0,0,0,0,0,0,0,-0.0175,-0.0179,-0.0191,-0.0171,-0.0169,-0.0174,-0.0174,-0.0174,-0.0139,-0.0138,-0.0137,-0.0136,-0.0075,-0.0073,-0.0071,-0.0083,0,0,-0.0067,-0.0066,0,0,0,0,0,0,0,0,-0.0175,-0.0176,-0.0174,-0.0172,-0.017,-0.0158,-0.0147,-0.0141,-0.014,-0.0151,-0.0137,-0.0136,-0.0098,-0.0095,-0.0095,-0.008,-0.0077,-0.0067,-0.0066,-0.0065,-0.0065,0,0,0,0,0,0,0,-0.0176,-0.0176,-0.0184,-0.0174,-0.0172,-0.0159,-0.0157,-0.0146,-0.0129,-0.015,-0.0147,-0.0146,-0.0097,-0.0096,-0.0093,-0.0076,-0.0067,-0.0065,-0.0064,-0.0064,-0.0042,-0.0043,0,0,0,0,0,0,-0.018,-0.0177,-0.0184,-0.0184,-0.0171,-0.016,-0.0158,-0.0163,-0.0131,-0.0125,-0.0147,-0.0144,-0.0099,-0.0095,-0.009,-0.0083,-0.0065,-0.0064,-0.0063,-0.0042,-0.0042,-0.0043,0,0,0,0,0,0,-0.018,-0.0181,-0.0185,-0.0179,-0.0179,-0.0161,-0.0167,-0.0163,-0.016,-0.0129,-0.0122,-0.0147,-0.0098,-0.0092,-0.0084,-0.0081,-0.0063,-0.0061,-0.0042,-0.0042,-0.0043,-0.0081,0,0,0,0,0,0,-0.018,-0.0182,-0.0188,-0.018,-0.0179,-0.0196,-0.0168,-0.0163,-0.0161,-0.0157,-0.0127,-0.012,-0.0097,-0.0086,-0.0082,-0.0078,-0.006,-0.0041,-0.0042,-0.0042,-0.0079,-0.0082,-0.0085,0,0,0,0,0,-0.018,-0.0198,-0.0188,-0.0189,-0.0188,-0.0196,-0.0196,-0.0179,-0.0162,-0.017,-0.0147,-0.0121,-0.0087,-0.0086,-0.0081,-0.0076,-0.0041,-0.0042,-0.0042,-0.0077,-0.0082,-0.0085,0,0,0,0,0,0,-0.0198,-0.0196,-0.0185,-0.0201,-0.02,-0.0191,-0.0197,-0.0184,-0.0173,-0.0167,-0.0132,-0.0125,-0.0116,-0.0096,-0.0095,-0.0073,-0.0057,-0.0057,-0.0085,-0.0089,-0.0092,-0.0083,-0.0059,0,0,0,0,0,-0.0205,-0.0216,-0.021,-0.0223,-0.0224,-0.021,-0.0211,-0.0201,-0.019,-0.0184,-0.0163,-0.0138,-0.0118,-0.0103,-0.009,-0.0081,-0.0037,-0.0073,-0.0076,-0.0079,-0.0068,0.0003,0.0008,-0.0046,-0.0046,-0.0046,0,0,-0.0216,-0.0216,-0.0221,-0.0227,-0.0223,-0.0236,-0.0208,-0.0217,-0.0219,-0.018,-0.0178,-0.0156,-0.0121,-0.0111,-0.0104,-0.009,-0.0045,-0.008,-0.0083,-0.007,0.0003,0.0008,0.0013,-0.0046,-0.0046,-0.0046,0,0,-0.0249,-0.0243,-0.0264,-0.0266,-0.0267,-0.0259,-0.0263,-0.0258,-0.0245,-0.0248,-0.0212,-0.0181,-0.0171,-0.0127,-0.0107,-0.0119,-0.0072,-0.0124,-0.0123,-0.0055,-0.0049,-0.0044,0.0001,0.0011,-0.0117,-0.0117,-0.0117,0,-0.0261,-0.0284,-0.0272,-0.0293,-0.0295,-0.0272,-0.0293,-0.0283,-0.0273,-0.0256,-0.0255,-0.0199,-0.017,-0.0122,-0.0127,-0.0122,-0.0089,-0.0111,-0.0057,-0.005,-0.0044,0.0001,0.0013,-0.0119,-0.0119,-0.0118,-0.0118,0,-0.0309,-0.0325,-0.0339,-0.0353,-0.0355,-0.0371,-0.0353,-0.0349,-0.0332,-0.031,-0.0272,-0.0229,-0.0185,-0.0174,-0.0155,-0.0096,-0.0091,-0.0075,-0.0044,-0.0041,0.0006,0.0019,-0.0122,-0.0121,-0.012,-0.012,0,0,-0.034,-0.0368,-0.0372,-0.0383,-0.0385,-0.0393,-0.0391,-0.0375,-0.036,-0.0334,-0.0301,-0.0252,-0.0213,-0.0186,-0.0145,-0.0081,-0.0015,-0.0065,-0.0061,-0.0016,0.0118,0.009,0.0101,0.0007,0.001,0.0012,0.0127,0,-0.0379,-0.043,-0.0428,-0.0462,-0.0482,-0.0455,-0.0454,-0.043,-0.0399,-0.0364,-0.0287,-0.0251,-0.0221,-0.0197,-0.0128,-0.0048,0.0019,-0.0048,0.0105,0.011,0.0089,0.0116,0.0019,0.0136,0.0139,0.0141,0.0143,0,-0.0425,-0.045,-0.0498,-0.0508,-0.0512,-0.0529,-0.0504,-0.0499,-0.0433,-0.0404,-0.0337,-0.0283,-0.0187,-0.0166,-0.0003,-0.0053,0.0031,0.0099,0.0106,0.0107,0.0106,0.0137,0.0167,0.0165,0.0163,0.0162,0.016,0,-0.0452,-0.0493,-0.053,-0.0538,-0.0551,-0.0558,-0.0557,-0.0512,-0.0495,-0.0423,-0.0396,-0.0282,-0.022,-0.01,0.003,0.0017,0.0208,0.0211,0.0272,0.027,0.0278,0.0271,0.0344,0.0344,0.0343,0.0343,0.0343,0,-0.0487,-0.0517,-0.0552,-0.0574,-0.0606,-0.0596,-0.0605,-0.0582,-0.0533,-0.0499,-0.0418,-0.0355,-0.0199,-0.0078,0.0036,0.0187,0.0219,0.0284,0.0307,0.0254,0.0243,0.0286,0.0278,0.0347,0.0346,0.0345,0.0345,0,-0.051,-0.0536,-0.0582,-0.0613,-0.0626,-0.0648,-0.0654,-0.0647,-0.0602,-0.0552,-0.053,-0.0396,-0.0241,-0.009,0.0118,0.0191,0.0338,0.0389,0.0311,0.0325,0.0351,0.0339,0.0466,0.0466,0.0466,0.0466,0.0467,0,-0.0525,-0.0555,-0.0616,-0.0648,-0.067,-0.07,-0.0715,-0.0688,-0.0669,-0.0567,-0.0534,-0.0385,-0.0283,-0.001,0.0136,0.0346,0.0375,0.0436,0.0407,0.0359,0.0369,0.0357,0.0345,0.0467,0.0467,0.0467,0.0467,0,-0.0546,-0.0575,-0.0612,-0.0683,-0.0722,-0.0752,-0.0765,-0.0753,-0.0696,-0.066,-0.051,-0.0366,-0.019,0.0003,0.0161,0.0312,0.0383,0.0438,0.0439,0.0412,0.0361,0.0368,0.0357,0.0467,0.0467,0.0467,0.0467,0,-0.0557,-0.059,-0.0647,-0.0701,-0.0757,-0.0782,-0.0787,-0.0742,-0.071,-0.0589,-0.0534,-0.0343,-0.0222,-0.0012,0.0138,0.0271,0.0302,0.0333,0.034,0.0341,0.0258,0.0172,0.0254,0,0,0,0,0,-0.0559,-0.0599,-0.0657,-0.0717,-0.0773,-0.0799,-0.0806,-0.0795,-0.0739,-0.0634,-0.0578,-0.0407,-0.0163,-0.0052,0.0081,0.0115,0.0298,0.0269,0.033,0.047,0.047,0.039,0,0,0,0,0,0,-0.0563,-0.0622,-0.0654,-0.0716,-0.0757,-0.0805,-0.081,-0.0774,-0.0702,-0.0625,-0.0488,-0.0396,-0.016,-0.0236,0.0079,0.0119,0.017,0.039,0.0392,0.0471,0.047,0.047,0.0387,0,0,0,0,0]}]]